Lake Hood, AK

6:44 AM AKDT on May 27, 2017 (GMT -0800)
Lake Hood

Weather History for PALH - July, 2013

Change the Weather History Date:

Wednesday, July 10, 2013

  Actual Average Record
Temperature  
Mean Temperature 64 °F -  
Max Temperature 73 °F 66 °F 81 °F (2004)
Min Temperature 57 °F 51 °F 48 °F (1998)
Growing Degree Days 14 (Base 50)    
Moisture  
Dew Point 48 °F    
Average Humidity 55    
Maximum Humidity 72    
Minimum Humidity 41    
Precipitation  
Precipitation 0.00 in - - ()
Sea Level Pressure  
Sea Level Pressure 30.01 in    
Wind  
Wind Speed 4 mph (West)    
Max Wind Speed 10 mph    
Max Gust Speed -    
Visibility 5 miles    
Events Rain    
Averages and records for this station are not official NWS values.
T = Trace of Precipitation, MM = Missing Value Source: NWS Daily Summary

Daily Weather History Graph

Daily Weather History Graph

Search for Another Location

Airport or City:

Trip Planner

Search our weather history database for the weather conditions in past years. The results will help you decide how hot, cold, wet, or windy it might be!

Date:

Astronomy

Jul. 10, 2013 Rise Set
Actual Time 4:42 AM AKDT 11:26 PM AKDT
Civil Twilight 2:56 AM AKDT 1:09 AM AKDT
Nautical Twilight Sun does not set Sun does not set
Astronomical Twilight Sun does not set Sun does not set
Moon 8:21 AM AKDT (7/10) 11:23 PM AKDT (7/10)
Length of Visible Light 22h 12m
Length of Day
18h 43m
Waxing Crescent, 6% of the Moon is Illuminated
Jul 10
Waxing Crescent
Jul 15
First Quarter
Jul 22
Full
Jul 29
Last Quarter
Aug 6
New

Hourly Weather History & Observations

Time (AKDT) Temp. Dew Point Humidity Pressure Visibility Wind Dir Wind Speed Gust Speed Precip Events Conditions
12:53 AM 57.9 °F 48.0 °F 70% 30.05 in 10.0 mi SE 4.6 mph - N/A   Overcast
1:53 AM 57.9 °F 48.9 °F 72% 30.06 in 10.0 mi SE 3.5 mph - N/A   Overcast
2:53 AM 59.0 °F 46.9 °F 64% 30.06 in 7.0 mi SSW 4.6 mph - 0.00 in   Overcast
3:53 AM 57.9 °F 48.0 °F 70% 30.06 in 9.0 mi Calm Calm - 0.00 in   Overcast
4:53 AM 57.9 °F 48.0 °F 70% 30.06 in 7.0 mi Calm Calm - 0.00 in Rain Light Rain
5:53 AM 57.0 °F 48.0 °F 72% 30.06 in 6.0 mi Calm Calm - 0.00 in   Haze
6:53 AM 57.0 °F 46.0 °F 67% 30.05 in 4.0 mi SW 3.5 mph - N/A   Haze
7:53 AM 59.0 °F 46.9 °F 64% 30.05 in 3.0 mi WSW 3.5 mph - N/A   Haze
8:44 AM 57.2 °F 46.4 °F 67% 30.05 in 2.5 mi South 4.6 mph - N/A   Haze
8:53 AM 59.0 °F 46.9 °F 64% 30.05 in 3.0 mi SW 3.5 mph - N/A   Haze
9:32 AM 60.8 °F 46.4 °F 59% 30.05 in 1.8 mi SW 4.6 mph - N/A   Haze
9:53 AM 61.0 °F 46.9 °F 60% 30.05 in 1.5 mi SSW 4.6 mph - N/A   Haze
10:22 AM 62.6 °F 48.2 °F 59% 30.04 in 2.5 mi SSE 3.5 mph - N/A   Haze
10:45 AM 62.6 °F 48.2 °F 59% 30.04 in 1.8 mi Calm Calm - N/A   Haze
10:53 AM 62.1 °F 48.0 °F 60% 30.04 in 2.5 mi Variable 3.5 mph - N/A   Haze
11:06 AM 62.6 °F 48.2 °F 59% 30.04 in 4.0 mi South 3.5 mph - N/A   Haze
11:20 AM 64.4 °F 46.4 °F 52% 30.03 in 1.8 mi Variable 5.8 mph - N/A   Haze
11:45 AM 64.4 °F 46.4 °F 52% 30.03 in 0.8 mi WSW 4.6 mph - N/A   Haze
11:53 AM 64.9 °F 46.9 °F 52% 30.04 in 1.5 mi Calm Calm - N/A   Haze
11:58 AM 66.2 °F 48.2 °F 52% 30.03 in 3.0 mi Variable 3.5 mph - N/A   Haze
12:53 PM 64.9 °F 50.0 °F 58% 30.03 in 8.0 mi NW 6.9 mph - N/A   Clear
1:53 PM 66.9 °F 48.0 °F 51% 30.02 in 7.0 mi NW 8.1 mph - N/A   Clear
2:53 PM 71.1 °F 48.0 °F 44% 30.00 in 10.0 mi North 4.6 mph - N/A   Clear
3:17 PM 71.6 °F 48.2 °F 43% 29.99 in 2.0 mi Calm Calm - N/A   Haze
3:26 PM 71.6 °F 48.2 °F 43% 29.99 in 8.0 mi Variable 3.5 mph - N/A   Clear
3:53 PM 71.1 °F 50.0 °F 47% 29.99 in 10.0 mi NNW 3.5 mph - N/A   Clear
4:53 PM 72.0 °F 46.9 °F 41% 29.98 in 7.0 mi NW 3.5 mph - N/A   Clear
5:24 PM 71.6 °F 48.2 °F 43% 29.97 in 2.0 mi North 3.5 mph - N/A   Haze
5:33 PM 71.6 °F 48.2 °F 43% 29.97 in 5.0 mi NNW 4.6 mph - N/A   Haze
5:46 PM 71.6 °F 50.0 °F 46% 29.96 in 1.8 mi WNW 9.2 mph - N/A   Haze
5:53 PM 70.0 °F 50.0 °F 49% 29.96 in 1.2 mi NW 8.1 mph - N/A   Haze
6:02 PM 69.8 °F 50.0 °F 49% 29.96 in 2.5 mi WNW 8.1 mph - N/A   Haze
6:23 PM 71.6 °F 50.0 °F 46% 29.96 in 3.0 mi WNW 8.1 mph - N/A   Haze
6:35 PM 71.6 °F 50.0 °F 46% 29.96 in 1.8 mi WNW 8.1 mph - N/A   Haze
6:48 PM 69.8 °F 50.0 °F 49% 29.96 in 2.0 mi WNW 10.4 mph - N/A   Haze
6:53 PM 69.1 °F 50.0 °F 51% 29.96 in 1.5 mi WNW 8.1 mph - N/A   Haze
7:02 PM 69.8 °F 50.0 °F 49% 29.96 in 3.0 mi WNW 8.1 mph - N/A   Haze
7:53 PM 69.1 °F 46.9 °F 45% 29.95 in 10.0 mi NW 4.6 mph - N/A   Partly Cloudy
8:53 PM 66.9 °F 48.9 °F 52% 29.95 in 10.0 mi WNW 6.9 mph - N/A   Clear
9:53 PM 64.9 °F 46.0 °F 50% 29.95 in 10.0 mi NW 5.8 mph - N/A   Overcast
10:53 PM 64.0 °F 45.0 °F 50% 29.95 in 10.0 mi WNW 3.5 mph - N/A   Partly Cloudy
11:53 PM 60.1 °F 48.0 °F 64% 29.96 in 10.0 mi Calm Calm - N/A   Overcast